DW4879 Weather Reports


time (UTC)temp
C
wind
direction
speed
KPH
gust
KPH
rain 1hr
cm
rain 24hr
cm
rain mn
cm
humidity
%
barometer
mb
20260509031100 21 284 4.8 8.0 0.00 0.00 0.00 18 1017.4
20260509030549 21 286 3.2 9.7 0.00 0.00 0.00 18 1017.4
20260509030057 21 286 3.2 11.3 0.00 0.00 0.00 18 1017.3
20260509025545 22 265 4.8 12.9 0.00 0.00 0.00 18 1017.3
20260509025040 22 273 6.4 12.9 0.00 0.00 0.00 18 1017.2
20260509024545 22 274 4.8 12.9 0.00 0.00 0.00 18 1017.2
20260509024036 22 304 4.8 8.0 0.00 0.00 0.00 17 1017.1
20260509023543 22 272 3.2 12.9 0.00 0.00 0.00 17 1017.1
20260509023049 22 298 6.4 14.5 0.00 0.00 0.00 17 1017.1
20260509022556 22 296 8.0 14.5 0.00 0.00 0.00 17 1016.9
20260509022047 23 270 8.0 17.7 0.00 0.00 0.00 17 1016.9
20260509021553 23 285 9.7 22.5 0.00 0.00 0.00 16 1016.9
20260509021058 23 276 9.7 22.5 0.00 0.00 0.00 16 1016.8
20260509020502 23 271 8.0 16.1 0.00 0.00 0.00 16 1016.8
20260509020057 23 277 11.3 20.9 0.00 0.00 0.00 16 1016.7
20260509015600 23 288 9.7 25.7 0.00 0.00 0.00 16 1016.7
20260509015002 24 263 11.3 19.3 0.00 0.00 0.00 16 1016.7
20260509014525 24 288 12.9 20.9 0.00 0.00 0.00 16 1016.7
20260509014103 24 295 12.9 25.7 0.00 0.00 0.00 16 1016.7
20260509013507 24 280 16.1 27.4 0.00 0.00 0.00 16 1016.7
20260509013101 24 302 12.9 27.4 0.00 0.00 0.00 16 1016.7
20260509012551 25 291 14.5 25.7 0.00 0.00 0.00 16 1016.7
20260509012059 25 302 16.1 25.7 0.00 0.00 0.00 16 1016.7
20260509011548 25 278 12.9 27.4 0.00 0.00 0.00 16 1016.7
20260509011040 25 289 19.3 30.6 0.00 0.00 0.00 15 1016.7
20260509010548 25 315 16.1 27.4 0.00 0.00 0.00 16 1016.7
20260509010053 25 313 12.9 33.8 0.00 0.00 0.00 15 1016.6
20260509005600 25 300 22.5 33.8 0.00 0.00 0.00 15 1016.6
20260509005052 25 306 11.3 30.6 0.00 0.00 0.00 15 1016.6
20260509004607 25 281 19.3 30.6 0.00 0.00 0.00 15 1016.6
20260509004049 25 324 14.5 33.8 0.00 0.00 0.00 15 1016.6
20260509003555 25 296 17.7 33.8 0.00 0.00 0.00 15 1016.7
20260509003047 25 250 14.5 33.8 0.00 0.00 0.00 15 1016.6
20260509002538 25 221 11.3 30.6 0.00 0.00 0.00 15 1016.6
20260509002049 25 288 16.1 32.2 0.00 0.00 0.00 15 1016.7
20260509001536 25 315 19.3 35.4 0.00 0.00 0.00 15 1016.7
20260509001043 25 311 25.7 35.4 0.00 0.00 0.00 15 1016.6
20260509000549 26 271 14.5 30.6 0.00 0.00 0.00 15 1016.6
20260509000057 26 287 14.5 32.2 0.00 0.00 0.00 15 1016.7
20260508235548 26 286 20.9 32.2 0.00 0.00 0.00 15 1016.6
20260508235056 26 317 17.7 30.6 0.00 0.00 0.00 15 1016.5
20260508234552 26 235 16.1 29.0 0.00 0.00 0.00 15 1016.6
20260508234039 26 295 19.3 37.0 0.00 0.00 0.00 15 1016.6
20260508233546 26 203 20.9 40.2 0.00 0.00 0.00 15 1016.5
20260508233053 26 321 19.3 40.2 0.00 0.00 0.00 15 1016.6
20260508232559 26 292 22.5 35.4 0.00 0.00 0.00 15 1016.6
20260508232105 26 282 17.7 29.0 0.00 0.00 0.00 15 1016.5
20260508231507 26 274 19.3 33.8 0.00 0.00 0.00 15 1016.5
20260508231014 26 315 14.5 32.2 0.00 0.00 0.00 15 1016.5
20260508230520 26 306 20.9 32.2 0.00 0.00 0.00 15 1016.4
20260508230025 26 314 20.9 32.2 0.00 0.00 0.00 15 1016.4
20260508225531 26 304 14.5 29.0 0.00 0.00 0.00 15 1016.4
20260508225037 26 209 19.3 33.8 0.00 0.00 0.00 15 1016.4
20260508224545 26 273 20.9 37.0 0.00 0.00 0.00 15 1016.4
20260508224036 26 281 24.1 37.0 0.00 0.00 0.00 15 1016.4
20260508223543 26 331 16.1 33.8 0.00 0.00 0.00 15 1016.4
20260508223049 26 306 12.9 30.6 0.00 0.00 0.00 15 1016.4
20260508222555 26 275 16.1 27.4 0.00 0.00 0.00 15 1016.6
20260508222046 26 248 12.9 32.2 0.00 0.00 0.00 15 1016.6
20260508221559 26 301 12.9 32.2 0.00 0.00 0.00 15 1016.6
20260508221100 26 303 19.3 33.8 0.00 0.00 0.00 15 1016.6
20260508220502 26 290 16.1 29.0 0.00 0.00 0.00 15 1016.6
20260508220046 26 291 16.1 38.6 0.00 0.00 0.00 16 1016.7
20260508215537 26 284 22.5 38.6 0.00 0.00 0.00 16 1016.7
20260508215047 25 248 16.1 38.6 0.00 0.00 0.00 16 1016.7
20260508214550 25 306 20.9 38.6 0.00 0.00 0.00 16 1016.9
20260508214058 25 263 16.1 30.6 0.00 0.00 0.00 17 1016.9
20260508213604 24 311 19.3 37.0 0.00 0.00 0.00 17 1017.1
20260508213004 24 309 20.9 37.0 0.00 0.00 0.00 17 1017.0
20260508212600 24 288 17.7 30.6 0.00 0.00 0.00 16 1017.0
20260508212001 25 275 14.5 30.6 0.00 0.00 0.00 16 1017.1
20260508211557 25 288 11.3 25.7 0.00 0.00 0.00 16 1017.2
20260508211047 25 290 14.5 30.6 0.00 0.00 0.00 16 1017.2
20260508210556 25 257 17.7 38.6 0.00 0.00 0.00 16 1017.2
20260508210046 25 290 22.5 38.6 0.00 0.00 0.00 16 1017.1
20260508205554 25 257 14.5 32.2 0.00 0.00 0.00 16 1017.2
20260508205042 25 293 17.7 33.8 0.00 0.00 0.00 15 1017.3
20260508204535 26 224 14.5 32.2 0.00 0.00 0.00 15 1017.2
20260508204041 26 244 17.7 32.2 0.00 0.00 0.00 15 1017.4
20260508203546 26 316 20.9 30.6 0.00 0.00 0.00 15 1017.3
20260508203100 27 290 9.7 22.5 0.00 0.00 0.00 14 1017.4
20260508202543 26 232 12.9 33.8 0.00 0.00 0.00 15 1017.5
20260508202049 26 292 12.9 29.0 0.00 0.00 0.00 15 1017.5
20260508201602 25 294 11.3 30.6 0.00 0.00 0.00 16 1017.6
20260508201102 25 248 16.1 30.6 0.00 0.00 0.00 15 1017.8
20260508200552 26 274 11.3 37.0 0.00 0.00 0.00 15 1017.8
20260508200101 25 254 19.3 37.0 0.00 0.00 0.00 16 1017.8
20260508195550 25 257 11.3 27.4 0.00 0.00 0.00 15 1017.8
20260508195042 25 309 14.5 32.2 0.00 0.00 0.00 16 1017.8
20260508194548 25 290 20.9 32.2 0.00 0.00 0.00 16 1017.9
20260508194039 25 184 12.9 27.4 0.00 0.00 0.00 16 1017.9
20260508193546 25 244 12.9 30.6 0.00 0.00 0.00 16 1017.8
20260508193037 25 282 16.1 30.6 0.00 0.00 0.00 16 1017.8
20260508192542 25 186 9.7 25.7 0.00 0.00 0.00 16 1017.9
20260508192049 25 276 11.3 24.1 0.00 0.00 0.00 16 1018.0
20260508191541 25 280 11.3 27.4 0.00 0.00 0.00 16 1018.1
20260508191047 25 286 9.7 19.3 0.00 0.00 0.00 16 1018.2
20260508190554 25 296 9.7 25.7 0.00 0.00 0.00 16 1018.3
20260508185555 25 320 11.3 24.1 0.00 0.00 0.00 16 1018.3
20260508185059 24 175 9.7 27.4 0.00 0.00 0.00 17 1018.2
20260508184608 24 298 12.9 33.8 0.00 0.00 0.00 17 1018.3
20260508184009 24 190 17.7 37.0 0.00 0.00 0.00 17 1018.3
20260508183604 24 301 14.5 37.0 0.00 0.00 0.00 18 1018.5
20260508183007 24 286 17.7 29.0 0.00 0.00 0.00 17 1018.5
20260508182603 24 211 11.3 24.1 0.00 0.00 0.00 16 1018.5
20260508182003 24 160 8.0 22.5 0.00 0.00 0.00 16 1018.6
20260508181608 24 204 11.3 22.5 0.00 0.00 0.00 16 1018.7
20260508181001 24 213 8.0 29.0 0.00 0.00 0.00 17 1018.8
20260508180504 23 288 12.9 29.0 0.00 0.00 0.00 17 1019.0
20260508180106 23 294 16.1 27.4 0.00 0.00 0.00 17 1018.9
20260508175552 23 257 11.3 25.7 0.00 0.00 0.00 17 1019.0
20260508175100 23 288 12.9 24.1 0.00 0.00 0.00 17 1019.0
20260508174501 23 272 11.3 24.1 0.00 0.00 0.00 17 1019.0
20260508174008 24 273 9.7 19.3 0.00 0.00 0.00 17 1019.0
20260508173605 23 257 8.0 16.1 0.00 0.00 0.00 17 1019.2
20260508173006 23 171 8.0 16.1 0.00 0.00 0.00 17 1019.2
20260508172602 23 284 4.8 16.1 0.00 0.00 0.00 17 1019.3
20260508172052 23 234 4.8 17.7 0.00 0.00 0.00 17 1019.3
20260508171601 22 193 8.0 19.3 0.00 0.00 0.00 18 1019.4
20260508171001 21 288 9.7 19.3 0.00 0.00 0.00 19 1019.5
20260508170509 21 248 8.0 16.1 0.00 0.00 0.00 19 1019.6
20260508170105 21 244 8.0 17.7 0.00 0.00 0.00 19 1019.6
20260508165508 21 234 6.4 17.7 0.00 0.00 0.00 19 1019.7
20260508165106 21 234 4.8 12.9 0.00 0.00 0.00 20 1019.7
20260508164505 21 267 6.4 12.9 0.00 0.00 0.00 20 1019.7
20260508164101 21 247 6.4 12.9 0.00 0.00 0.00 20 1019.7
20260508163552 21 240 3.2 9.7 0.00 0.00 0.00 21 1019.8
20260508163058 21 205 4.8 11.3 0.00 0.00 0.00 21 1019.7
20260508162549 20 173 4.8 11.3 0.00 0.00 0.00 22 1019.8
20260508162055 20 134 1.6 8.0 0.00 0.00 0.00 22 1019.8
20260508161545 20 216 3.2 11.3 0.00 0.00 0.00 23 1019.7
20260508161036 19 153 8.0 11.3 0.00 0.00 0.00 24 1019.8
20260508160546 19 182 1.6 9.7 0.00 0.00 0.00 24 1019.9
20260508160049 18 150 3.2 9.7 0.00 0.00 0.00 24 1019.9
20260508155559 18 146 1.6 6.4 0.00 0.00 0.00 24 1019.8
20260508155050 18 157 0.0 6.4 0.00 0.00 0.00 24 1019.8
20260508154603 18 149 4.8 6.4 0.00 0.00 0.00 25 1019.9
20260508154046 17 192 4.8 9.7 0.00 0.00 0.00 25 1019.9
20260508153537 17 131 4.8 11.3 0.00 0.00 0.00 25 1020.0
20260508153052 17 150 3.2 11.3 0.00 0.00 0.00 26 1020.0
20260508152551 17 163 3.2 6.4 0.00 0.00 0.00 26 1019.9
20260508152059 16 120 4.8 9.7 0.00 0.00 0.00 26 1019.9
20260508151551 16 127 4.8 9.7 0.00 0.00 0.00 27 1019.9
20260508151058 16 104 3.2 11.3 0.00 0.00 0.00 28 1020.0
20260508150604 15 119 4.8 11.3 0.00 0.00 0.00 28 1020.0
20260508150007 15 119 4.8 12.9 0.00 0.00 0.00 29 1020.0
20260508145603 15 118 6.4 12.9 0.00 0.00 0.00 29 1019.9
20260508145005 15 130 8.0 11.3 0.00 0.00 0.00 29 1019.9
20260508144601 14 101 6.4 11.3 0.00 0.00 0.00 30 1020.0
20260508144002 14 134 4.8 11.3 0.00 0.00 0.00 30 1020.0
20260508143558 13 96 4.8 11.3 0.00 0.00 0.00 31 1020.0
20260508143048 13 104 4.8 12.9 0.00 0.00 0.00 32 1020.0
20260508142556 13 95 8.0 12.9 0.00 0.00 0.00 31 1020.0
20260508142047 13 132 6.4 12.9 0.00 0.00 0.00 32 1020.2
20260508141615 13 126 6.4 12.9 0.00 0.00 0.00 33 1020.0
20260508141101 12 126 6.4 12.9 0.00 0.00 0.00 32 1020.1
20260508140503 12 121 6.4 11.3 0.00 0.00 0.00 32 1020.0
20260508140046 12 129 4.8 11.3 0.00 0.00 0.00 33 1020.0
20260508135537 12 132 3.2 11.3 0.00 0.00 0.00 33 1020.0
20260508135045 11 119 4.8 12.9 0.00 0.00 0.00 33 1019.9
20260508134602 11 122 4.8 12.9 0.00 0.00 0.00 34 1019.8
20260508134103 11 88 4.8 11.3 0.00 0.00 0.00 34 1019.8
20260508133605 11 91 6.4 11.3 0.00 0.00 0.00 34 1019.7
20260508133009 10 90 4.8 11.3 0.00 0.00 0.00 35 1019.7
20260508132603 10 98 6.4 11.3 0.00 0.00 0.00 35 1019.7
20260508132007 10 101 4.8 11.3 0.00 0.00 0.00 36 1019.6
20260508131602 10 94 8.0 11.3 0.00 0.00 0.00 36 1019.6
20260508131003 9 117 6.4 11.3 0.00 0.00 0.00 37 1019.5
20260508130512 9 98 6.4 11.3 0.00 0.00 0.00 37 1019.6
20260508130105 9 111 4.8 11.3 0.00 0.00 0.00 37 1019.5
20260508125509 9 103 6.4 12.9 0.00 0.00 0.00 37 1019.5
20260508125103 8 108 4.8 12.9 0.00 0.00 0.00 38 1019.4
20260508124559 8 92 6.4 11.3 0.00 0.00 0.00 38 1019.4
20260508124100 8 98 4.8 11.3 0.00 0.00 0.00 39 1019.3
20260508123502 8 96 4.8 9.7 0.00 0.00 0.00 40 1019.3
20260508123009 8 106 4.8 12.9 0.00 0.00 0.00 40 1019.3
20260508122607 8 92 4.8 12.9 0.00 0.00 0.00 40 1019.3
20260508122008 7 96 6.4 11.3 0.00 0.00 0.00 41 1019.3
20260508121603 7 89 6.4 11.3 0.00 0.00 0.00 41 1019.3
20260508121053 7 90 4.8 9.7 0.00 0.00 0.00 40 1019.3
20260508120600 7 86 4.8 6.4 0.00 0.00 0.00 40 1019.3
20260508120051 7 101 4.8 6.4 0.00 0.00 0.00 40 1019.2
20260508115543 7 96 4.8 6.4 0.00 0.00 0.00 40 1019.2
20260508115051 7 102 4.8 6.4 0.00 0.00 0.00 40 1019.2
20260508114555 8 108 3.2 4.8 0.00 0.00 0.00 40 1019.2
20260508114104 8 109 4.8 6.4 0.00 0.00 0.00 38 1019.2
20260508113555 8 112 4.8 6.4 0.00 0.00 0.00 38 1019.2
20260508113115 8 115 3.2 6.4 0.00 0.00 0.00 38 1019.2
20260508112553 8 118 3.2 4.8 0.00 0.00 0.00 37 1019.2
20260508112044 8 106 3.2 4.8 0.00 0.00 0.00 36 1019.2
20260508111533 9 84 3.2 4.8 0.00 0.00 0.00 36 1019.2
20260508111042 9 79 0.0 6.4 0.00 0.00 0.00 36 1019.1
20260508110548 9 44 3.2 3.2 0.00 0.00 0.00 35 1019.2
20260508110059 10 355 1.6 3.2 0.00 0.00 0.00 34 1019.2
20260508105545 10 355 1.6 3.2 0.00 0.00 0.00 34 1019.1
20260508105053 10 333 1.6 1.6 0.00 0.00 0.00 34 1019.0
20260508104559 10 333 0.0 4.8 0.00 0.00 0.00 34 1019.1
20260508104002 10 333 1.6 4.8 0.00 0.00 0.00 34 1019.1
20260508103558 10 5 1.6 6.4 0.00 0.00 0.00 34 1019.1
20260508103001 10 11 3.2 6.4 0.00 0.00 0.00 33 1019.1
20260508102556 10 17 3.2 6.4 0.00 0.00 0.00 33 1019.1
20260508102047 11 11 4.8 8.0 0.00 0.00 0.00 33 1019.1
20260508101555 11 27 3.2 8.0 0.00 0.00 0.00 33 1019.1
20260508101101 11 30 4.8 9.7 0.00 0.00 0.00 33 1019.1
20260508100503 11 35 4.8 8.0 0.00 0.00 0.00 33 1019.0
20260508100049 11 13 4.8 8.0 0.00 0.00 0.00 33 1019.0
20260508095556 11 23 3.2 8.0 0.00 0.00 0.00 33 1019.0
20260508095103 11 14 4.8 8.0 0.00 0.00 0.00 33 1019.0
20260508094509 10 26 4.8 9.7 0.00 0.00 0.00 33 1019.0
20260508094012 10 19 4.8 8.0 0.00 0.00 0.00 32 1019.0
20260508093503 10 39 4.8 8.0 0.00 0.00 0.00 32 1019.0
20260508093015 10 42 4.8 8.0 0.00 0.00 0.00 32 1018.9
20260508092501 10 37 3.2 6.4 0.00 0.00 0.00 32 1019.0
20260508092009 10 31 3.2 6.4 0.00 0.00 0.00 32 1018.9
20260508091602 10 33 4.8 6.4 0.00 0.00 0.00 32 1018.9
20260508091056 10 26 3.2 4.8 0.00 0.00 0.00 32 1018.9
20260508090601 11 9 1.6 3.2 0.00 0.00 0.00 31 1019.0
20260508090053 11 22 1.6 3.2 0.00 0.00 0.00 31 1018.9
20260508085602 11 22 1.6 3.2 0.00 0.00 0.00 31 1018.9
20260508085001 11 22 1.6 4.8 0.00 0.00 0.00 31 1019.0
20260508084509 11 9 1.6 4.8 0.00 0.00 0.00 30 1018.9
20260508084015 11 14 1.6 3.2 0.00 0.00 0.00 30 1019.1
20260508083521 11 36 1.6 3.2 0.00 0.00 0.00 30 1019.0
20260508083027 11 36 1.6 3.2 0.00 0.00 0.00 30 1019.0
20260508082536 12 36 1.6 4.8 0.00 0.00 0.00 30 1019.0
20260508082040 12 39 1.6 6.4 0.00 0.00 0.00 30 1019.2
20260508081547 12 59 1.6 6.4 0.00 0.00 0.00 30 1019.1
20260508081037 12 56 3.2 4.8 0.00 0.00 0.00 30 1019.1
20260508080545 12 55 3.2 4.8 0.00 0.00 0.00 30 1019.2
20260508080051 12 66 3.2 6.4 0.00 0.00 0.00 29 1019.2
20260508075555 12 56 3.2 6.4 0.00 0.00 0.00 30 1019.2
20260508075059 12 39 3.2 6.4 0.00 0.00 0.00 30 1019.1
20260508074502 12 47 3.2 6.4 0.00 0.00 0.00 29 1019.2
20260508074058 12 37 3.2 4.8 0.00 0.00 0.00 28 1019.3
20260508073501 12 355 0.0 3.2 0.00 0.00 0.00 28 1019.3
20260508073056 12 355 0.0 3.2 0.00 0.00 0.00 27 1019.3
20260508072601 12 355 1.6 4.8 0.00 0.00 0.00 27 1019.3
20260508072005 12 343 1.6 4.8 0.00 0.00 0.00 27 1019.3
20260508071600 12 332 1.6 4.8 0.00 0.00 0.00 26 1019.3
20260508071003 13 326 1.6 3.2 0.00 0.00 0.00 26 1019.4
20260508070559 13 326 1.6 3.2 0.00 0.00 0.00 26 1019.4
20260508070002 13 338 1.6 3.2 0.00 0.00 0.00 26 1019.3
20260508065557 13 338 1.6 3.2 0.00 0.00 0.00 26 1019.4
20260508065048 13 338 1.6 3.2 0.00 0.00 0.00 26 1019.3
20260508064556 13 338 1.6 3.2 0.00 0.00 0.00 26 1019.4
20260508064047 13 329 1.6 3.2 0.00 0.00 0.00 26 1019.4
20260508063555 13 329 0.0 3.2 0.00 0.00 0.00 26 1019.2
20260508063100 13 329 1.6 3.2 0.00 0.00 0.00 26 1019.3
20260508062503 13 329 1.6 4.8 0.00 0.00 0.00 26 1019.2
20260508062100 13 329 1.6 4.8 0.00 0.00 0.00 25 1019.2
20260508061507 13 317 1.6 4.8 0.00 0.00 0.00 25 1019.1
20260508061058 13 337 1.6 6.4 0.00 0.00 0.00 25 1019.1
20260508060603 13 341 3.2 6.4 0.00 0.00 0.00 25 1019.1
20260508060002 14 350 3.2 6.4 0.00 0.00 0.00 25 1019.1
20260508055509 14 349 1.6 4.8 0.00 0.00 0.00 24 1019.1
20260508055105 14 330 0.0 3.2 0.00 0.00 0.00 24 1019.1
20260508054508 15 321 0.0 3.2 0.00 0.00 0.00 24 1019.1
20260508054100 15 321 0.0 3.2 0.00 0.00 0.00 24 1019.1
20260508053501 15 306 0.0 8.0 0.00 0.00 0.00 24 1019.1
20260508053009 15 302 3.2 8.0 0.00 0.00 0.00 24 1019.1
20260508052604 15 295 3.2 4.8 0.00 0.00 0.00 24 1019.2
20260508052008 15 269 1.6 4.8 0.00 0.00 0.00 24 1019.2
20260508051603 15 252 1.6 4.8 0.00 0.00 0.00 24 1019.3
20260508051004 15 263 1.6 4.8 0.00 0.00 0.00 24 1019.2
20260508050600 15 288 3.2 4.8 0.00 0.00 0.00 24 1019.2
20260508050050 15 287 3.2 6.4 0.00 0.00 0.00 23 1019.3
20260508045554 15 273 3.2 8.0 0.00 0.00 0.00 23 1019.3
20260508045044 15 290 4.8 11.3 0.00 0.00 0.00 23 1019.3
20260508044536 15 278 4.8 11.3 0.00 0.00 0.00 23 1019.3
20260508044045 15 257 6.4 11.3 0.00 0.00 0.00 23 1019.3
20260508043534 16 267 3.2 11.3 0.00 0.00 0.00 23 1019.2
20260508043044 16 294 4.8 12.9 0.00 0.00 0.00 23 1019.1
20260508042545 16 280 6.4 16.1 0.00 0.00 0.00 23 1019.2
20260508042053 16 304 8.0 16.1 0.00 0.00 0.00 23 1019.1
20260508041543 16 293 8.0 14.5 0.00 0.00 0.00 23 1019.0
20260508041049 16 314 9.7 14.5 0.00 0.00 0.00 23 1019.0
20260508040555 15 294 9.7 14.5 0.00 0.00 0.00 23 1019.0
20260508035502 15 299 6.4 17.7 0.00 0.00 0.00 23 1018.9
20260508035012 15 295 6.4 17.7 0.00 0.00 0.00 23 1018.8
20260508034502 16 288 6.4 11.3 0.00 0.00 0.00 22 1018.8
20260508034010 16 289 4.8 9.7 0.00 0.00 0.00 22 1018.8
20260508033514 16 293 4.8 12.9 0.00 0.00 0.00 22 1018.7
20260508033104 16 278 6.4 14.5 0.00 0.00 0.00 22 1018.6
20260508032506 16 306 6.4 19.3 0.00 0.00 0.00 22 1018.6
20260508032103 16 283 9.7 19.3 0.00 0.00 0.00 22 1018.5
20260508031551 16 287 11.3 19.3 0.00 0.00 0.00 21 1018.5